[[{"header":{"parameterUnit":"m.s-1","parameterCategory":1,"la1":30.2992,"la2":30.254,"lo1":-89.0895,"lo2":-89.0443,"dy":0.0025,"dx":0.0025,"nx":19,"ny":19,"refTime":"2026-04-03T03:00:00:Z","depth":0,"parameterNumber":2,"parameterNumberName":"U-component_of_WINDS"},"data":[0,0,0,-5.38,-5.3802,-5.3872,-5.3872,-5.3989,-5.399,0,0,0,0,0,0,0,0,0,0,0,-5.3796,-5.3797,-5.38,-5.3802,-5.3872,-5.3872,-5.3989,-5.399,0,0,0,0,0,0,0,0,0,0,0,-5.3795,-5.3797,-5.3799,-5.3803,-5.3872,-5.3872,-5.3989,-5.3926,0,0,0,0,0,0,0,0,0,0,-5.3854,-5.3866,-5.3797,-5.3799,-5.3803,-5.3872,-5.3872,-5.3923,-5.393,-5.397,0,-5.4009,0,-5.4002,-5.4,-5.4,0,0,0,-5.379,-5.386,-5.3864,-5.3799,-5.3804,-5.3872,-5.3837,-5.3926,-5.3935,-5.398,-5.401,-5.4014,-5.4004,-5.4001,-5.4002,-5.4272,-5.4273,0,0,-5.3786,-5.3817,-5.3858,-5.387,-5.3861,-5.3835,-5.3839,-5.3931,-5.3966,-5.401,-5.4016,-5.4006,-5.4002,-5.4003,-5.427,-5.4272,0,0,0,-5.3783,-5.3815,-5.3816,-5.3866,-5.3877,-5.3837,-5.3842,-5.3962,-5.396,-5.4017,-5.4007,-5.4003,-5.4004,-5.4268,-5.4271,-5.4391,0,0,0,-5.3781,-5.3813,-5.3815,-5.3835,-5.3875,-5.392,-5.3872,-5.3954,-5.3963,-5.4006,-5.4003,-5.4006,-5.4266,-5.4269,-5.4383,-5.4442,0,0,0,-5.3786,-5.3814,-5.383,-5.3837,-5.3868,-5.3918,-5.392,-5.3955,-5.3958,-5.4001,-5.4006,-5.4264,-5.4269,-5.4376,-5.443,-5.4521,0,0,0,-5.38,-5.3935,-5.3832,-5.3979,-5.3867,-5.3993,-5.3919,-5.4011,-5.4062,-5.4003,-5.4266,-5.427,-5.4374,-5.4423,-5.4514,-5.4602,-5.4642,0,0,-5.3987,-5.3958,-5.4043,-5.3953,-5.4104,-5.398,-5.4149,-5.4166,-5.4142,-5.423,-5.4236,-5.4386,-5.4429,-5.452,-5.486,-5.4892,0,0,0,-5.4112,-5.4173,-5.4206,-5.4257,-5.4275,-5.4295,-5.4284,-5.4291,-5.4364,-5.4194,-5.4444,-5.4469,-5.452,-5.4561,-5.4588,-5.463,-5.4291,-5.4291,-5.429,-5.4418,-5.4382,-5.4519,-5.4492,-5.4543,-5.4532,-5.457,-5.4577,-5.4524,-5.4585,-5.4609,-5.482,-5.4869,-5.4889,-5.4934,-5.4655,-5.4655,-5.4656,-5.4656,-5.4687,-5.4766,-5.4697,-5.4804,-5.4766,-5.4856,-5.4853,-5.4813,-5.4892,-5.4798,-5.4842,-5.474,-5.4925,-5.4962,-5.4665,-5.4663,-5.4662,-5.4661,-5.4661,-5.488,-5.4912,-5.4921,-5.4993,-5.5053,-5.5022,-5.5102,-5.5065,-5.503,-5.5073,-5.5095,-5.5093,-5.5085,-5.5087,-5.5088,-5.5089,-5.509,-5.509,-5.509,-5.5077,-5.5082,-5.5154,-5.5188,-5.5217,-5.5251,-5.5246,-5.5274,-5.5295,-5.5261,-5.5261,-5.5203,-5.4952,-5.4888,-5.5102,-5.51,-5.5098,-5.5097,-5.5096,-5.5357,-5.5289,-5.5399,-5.5429,-5.5467,-5.5531,-5.5484,-5.5546,-5.5564,-5.5605,-5.5539,-5.536,-5.5327,-5.5305,-5.5252,-5.5547,-5.5547,-5.5547,-5.5547,-5.5518,-5.55,-5.5605,-5.5656,-5.5702,-5.5673,-5.58,-5.58,-5.5787,-5.5797,-5.575,-5.5677,-5.5657,-5.5636,-5.5607,-5.5556,-5.5922,-5.5922,-5.5923,-5.5688,-5.5673,-5.5787,-5.5776,-5.5804,-5.583,-5.5949,-5.6011,-5.5984,-5.5937,-5.5803,-5.5787,-5.567,-5.5634,-5.5579,-5.5535,-5.5442,0,0]},{"header":{"parameterUnit":"m.s-1","parameterCategory":1,"la1":30.2992,"la2":30.254,"lo1":-89.0895,"lo2":-89.0443,"dy":0.0025,"dx":0.0025,"nx":19,"ny":19,"refTime":"2026-04-03T03:00:00:Z","depth":0,"parameterNumber":3,"parameterNumberName":"V-component_of_WINDS"},"data":[0,0,0,1.6656,1.6656,1.6665,1.6665,1.6649,1.6648,0,0,0,0,0,0,0,0,0,0,0,1.6638,1.6638,1.6656,1.6656,1.6665,1.6665,1.6649,1.6648,0,0,0,0,0,0,0,0,0,0,0,1.6639,1.6638,1.6637,1.6656,1.6665,1.6665,1.6649,1.6652,0,0,0,0,0,0,0,0,0,0,1.6648,1.6616,1.6638,1.6637,1.6656,1.6665,1.6665,1.6652,1.6651,1.6633,0,1.6614,0,1.6631,1.6645,1.6645,0,0,0,1.6667,1.6617,1.6634,1.6637,1.6656,1.6665,1.6664,1.6652,1.6651,1.6632,1.6614,1.6614,1.6631,1.6645,1.6645,1.6509,1.6508,0,0,1.6667,1.6631,1.6634,1.6632,1.6631,1.6664,1.6664,1.6652,1.6629,1.6614,1.6614,1.663,1.6645,1.6645,1.651,1.6509,0,0,0,1.6658,1.663,1.6648,1.6632,1.6636,1.6664,1.6664,1.663,1.6639,1.6615,1.663,1.6645,1.6644,1.6512,1.651,1.6419,0,0,0,1.6658,1.6625,1.6647,1.6625,1.6636,1.6633,1.6642,1.664,1.664,1.663,1.6645,1.6644,1.6513,1.6511,1.6425,1.6381,0,0,0,1.6643,1.6624,1.662,1.6623,1.6626,1.6634,1.6643,1.6641,1.6648,1.6645,1.6644,1.6514,1.6511,1.6429,1.6389,1.6336,0,0,0,1.6616,1.6537,1.6618,1.6537,1.6626,1.6579,1.6644,1.661,1.6597,1.6644,1.6513,1.651,1.6431,1.6394,1.634,1.6283,1.6257,0,0,1.6497,1.6522,1.6477,1.6549,1.648,1.6581,1.6498,1.6518,1.6549,1.652,1.6518,1.6423,1.639,1.6337,1.6121,1.61,0,0,0,1.6427,1.6394,1.6384,1.6371,1.6386,1.6396,1.6433,1.6441,1.6419,1.6528,1.6391,1.6372,1.6342,1.6317,1.6298,1.6275,1.6497,1.6497,1.6498,1.6205,1.6252,1.6181,1.623,1.6216,1.6258,1.6251,1.6268,1.6317,1.6284,1.6275,1.6139,1.6108,1.6094,1.6069,1.625,1.625,1.6249,1.6249,1.6034,1.5995,1.6066,1.6023,1.6073,1.6036,1.6073,1.611,1.6082,1.6149,1.6125,1.6192,1.6069,1.605,1.6243,1.6244,1.6245,1.6245,1.6246,1.5892,1.5882,1.5896,1.5884,1.5869,1.5921,1.5892,1.5939,1.5982,1.5958,1.5954,1.5956,1.5962,1.5954,1.5953,1.5953,1.5952,1.5952,1.5952,1.574,1.5758,1.573,1.5742,1.5741,1.5746,1.5789,1.5788,1.58,1.5835,1.5836,1.5887,1.6049,1.6088,1.5944,1.5946,1.5947,1.5947,1.5948,1.5546,1.5599,1.5554,1.5553,1.5573,1.5556,1.5617,1.5613,1.562,1.5604,1.5663,1.5775,1.5803,1.5818,1.585,1.5654,1.5654,1.5654,1.5654,1.5426,1.5447,1.5413,1.5409,1.5411,1.5462,1.541,1.5443,1.5485,1.5492,1.5528,1.5575,1.5589,1.5609,1.5628,1.5659,1.5418,1.5418,1.5418,1.531,1.5333,1.528,1.5324,1.5344,1.5359,1.5312,1.5303,1.5362,1.5409,1.5498,1.5508,1.5586,1.5609,1.5655,1.5684,1.5742,0,0]}]]